This demonstration page uses our WeatherBlox Daily Observations layout. Learn more.

Left ArrowRight Arrow

31.31129, -92.44514

Hourly Observations for October 14, 2015

Temp ( °F °C ) Dew Point ( °F °C ) Humidity (%) Winds ( mph kmh ) Pressure ( in mb ) Visibility ( mi km ) Precip ( " mm )
12:53 am 00:53 Clear 56 13.3 47 8.3 72 72 Calm 29.98 1015 9 14 0.00 0.00
1:53 am 01:53 Hazy 54 12.2 46 7.8 75 75 Calm 29.99 1016 4 6 0.00 0.00
2:53 am 02:53 Clear 52 11.1 47 8.3 83 83 NW 3 6 29.99 1016 10 16 0.00 0.00
3:53 am 03:53 Clear 53 11.7 44 6.7 72 72 Calm 29.99 1016 9 14 0.00 0.00
4:53 am 04:53 Clear 51 10.6 47 8.3 86 86 Calm 30.00 1016 10 16 0.00 0.00
5:53 am 05:53 Clear 53 11.7 49 9.4 86 86 Calm 30.01 1016 8 13 0.00 0.00
6:53 am 06:53 Clear 49 9.4 46 7.8 90 90 Calm 30.04 1017 10 16 0.00 0.00
7:53 am 07:53 Sunny 53 11.7 48 8.9 83 83 Calm 30.05 1018 8 13 0.00 0.00
8:53 am 08:53 Hazy 62 16.7 51 10.6 67 67 Calm 30.07 1018 5 8 0.00 0.00
9:53 am 09:53 Sunny 73 22.8 48 8.9 41 41 Calm 30.09 1019 8 13 0.00 0.00
10:53 am 10:53 Sunny 81 27.2 43 6.1 26 26 SE 3 6 30.09 1019 8 13 0.00 0.00
11:53 am 11:53 Sunny 85 29.4 39 3.9 20 20 VRB 5 7 30.09 1019 10 16 0.00 0.00
12:53 pm 12:53 Sunny 88 31.1 39 3.9 18 18 SE 6 9 30.08 1019 10 16 0.00 0.00
1:53 pm 13:53 Sunny 89 31.7 39 3.9 17 17 VRB 6 9 30.06 1018 10 16 0.00 0.00
2:53 pm 14:53 Sunny 89 31.7 38 3.3 16 16 Calm 30.03 1017 10 16 0.00 0.00
3:53 pm 15:53 Sunny 90 32.2 37 2.8 15 15 Calm 30.02 1017 10 16 0.00 0.00
4:53 pm 16:53 Sunny 90 32.2 36 2.2 15 15 SSE 5 7 30.01 1016 10 16 0.00 0.00
5:53 pm 17:53 Sunny 88 31.1 39 3.9 18 18 S 5 7 30.01 1016 10 16 0.00 0.00
6:53 pm 18:53 Clear 74 23.3 49 9.4 41 41 Calm 30.02 1017 10 16 0.00 0.00
7:53 pm 19:53 Clear 72 22.2 47 8.3 41 41 Calm 30.04 1017 10 16 0.00 0.00
8:53 pm 20:53 Clear 67 19.4 50 10 55 55 Calm 30.05 1018 10 16 0.00 0.00
9:53 pm 21:53 Clear 64 17.8 50 10 60 60 Calm 30.05 1018 10 16 0.00 0.00
10:53 pm 22:53 Clear 62 16.7 50 10 65 65 Calm 30.06 1018 10 16 0.00 0.00
11:53 pm 23:53 Clear 60 15.6 51 10.6 72 72 Calm 30.06 1018 10 16 0.00 0.00

Powered by AerisWeather